Tracking 21606 objects as of 24-Oct-2020
HD Live streaming from Space Station
objects crossing your sky now

COSMOS 1782

Track COSMOS 1782 now!
10-day predictions
COSMOS 1782 is classified as:


NORAD ID: 16986
Int'l Code: 1986-074A
Perigee: 542.7 km
Apogee: 560.2 km
Inclination: 82.5 °
Period: 95.5 minutes
Semi major axis: 6922 km
RCS: 9.471 m2 (large)
Launch date: September 30, 1986
Source: Commonwealth of Independent States (former USSR) (CIS)
Launch site: PLESETSK MISSILE AND SPACE COMPLEX (PKMTR)
aabbcc
Your satellite tracking list
Your tracking list is empty




NASA's NSSDC Master Catalog

Two Line Element Set (TLE):
1 16986U 86074A   20298.24075834 +.00000049 +00000-0 +12257-5 0  9994
2 16986 082.5107 008.7273 0012683 115.4822 244.7719 15.07344840834178
Source of the keplerian elements: AFSPC